{"data":{"norad_id":66387,"epoch":"2026-09-20T13:14:10.775904Z","epoch_age_seconds":89011,"freshness":"FRESH","line1":"1 66387U 25257H   26263.55151361  .00020510  00000+0  61598-3 0  9996","line2":"2 66387  53.1590  27.2357 0001647  65.4978 294.6196 15.34426532 49632","mean_motion":15.34426532,"eccentricity":0.0001647,"inclination_deg":53.159,"raan_deg":27.2357,"arg_perigee_deg":65.4978,"mean_anomaly_deg":294.6196,"bstar":0.00061598,"rev_number":4963,"period_min":93.846135345632,"perigee_km":461.49770924832,"apogee_km":463.75105604776,"semimajor_km":6840.761382648,"source":"CELESTRAK","updated_at":"2026-09-21T09:00:35.886499Z"}}